When you browse on this site, cookies collect data to enhance your experience and personalize the content and advertising you see.
Visit our Privacy Policy to learn more. By continuing to use the site, you agree to this use of cookies and data.
  • In Latvia
  • List of Countries
  • For 7 days
  • Water Temperature
  • Satellite Maps
  • Weather Map
  • Weather Widgets
  • user-avatar
    Login

    Hourly Weather Sofino

    Today, 16 November, Friday

    Time Temperature Precipitation Wind Pressure Humidity
    00:00 -3°C° 0 mm 1 mps 777 mmHg 31%
    01:00 -6°C° 0 mm 2 mps 777 mmHg 31%
    02:00 -6°C° 0 mm 2 mps 778 mmHg 31%
    03:00 -4°C° 0 mm 1 mps 778 mmHg 31%
    04:00 -4°C° 0 mm 1 mps 778 mmHg 31%
    05:00 -4°C° 0 mm 1 mps 778 mmHg 32%
    06:00 -6°C° 0 mm 2 mps 778 mmHg 32%
    07:00 -4°C° 0 mm 1 mps 778 mmHg 30%
    08:00 -3°C° 0 mm 1 mps 778 mmHg 29%
    09:00 -3°C° 0 mm 1 mps 779 mmHg 28%
    10:00 -4°C° 0 mm 2 mps 778 mmHg 26%
    11:00 -3°C° 0 mm 2 mps 778 mmHg 24%
    12:00 -2°C° 0 mm 2 mps 778 mmHg 23%
    13:00 -2°C° 0 mm 2 mps 778 mmHg 24%
    14:00 0°C° 0 mm 1 mps 778 mmHg 25%
    15:00 0°C° 0 mm 1 mps 778 mmHg 28%
    16:00 -1°C° 0 mm 1 mps 778 mmHg 29%
    17:00 -1°C° 0 mm 1 mps 777 mmHg 30%
    18:00 -2°C° 0 mm 1 mps 777 mmHg 30%
    19:00 -2°C° 0 mm 1 mps 777 mmHg 30%
    20:00 -2°C° 0 mm 1 mps 777 mmHg 30%
    21:00 -2°C° 0 mm 1 mps 777 mmHg 30%
    22:00 -2°C° 0 mm 1 mps 777 mmHg 29%
    23:00 -2°C° 0 mm 1 mps 776 mmHg 29%

    Tomorrow, 17 November, Saturday

    Time Temperature Precipitation Wind Pressure Humidity
    00:00 -2°C° 0 mm 1 mps 776 mmHg 28%
    01:00 -2°C° 0 mm 1 mps 776 mmHg 28%
    02:00 -2°C° 0 mm 1 mps 775 mmHg 27%
    03:00 -2°C° 0 mm 1 mps 775 mmHg 27%
    04:00 -4°C° 0 mm 2 mps 775 mmHg 26%
    05:00 -4°C° 0 mm 2 mps 774 mmHg 26%
    06:00 -4°C° 0 mm 2 mps 774 mmHg 25%
    07:00 -4°C° 0 mm 2 mps 774 mmHg 24%
    08:00 -3°C° 0 mm 2 mps 773 mmHg 23%
    09:00 -3°C° 0 mm 2 mps 773 mmHg 22%
    10:00 -2°C° 0 mm 3 mps 772 mmHg 21%
    11:00 0°C° 0 mm 3 mps 772 mmHg 19%
    12:00 +1°C° 0 mm 3 mps 771 mmHg 18%
    13:00 +1°C° 0 mm 3 mps 770 mmHg 20%
    14:00 0°C° 0 mm 3 mps 770 mmHg 22%
    15:00 0°C° 0 mm 3 mps 769 mmHg 23%
    16:00 0°C° 0 mm 3 mps 769 mmHg 24%
    17:00 -1°C° 0 mm 3 mps 768 mmHg 25%
    18:00 -1°C° 0 mm 3 mps 768 mmHg 26%
    19:00 -1°C° 0 mm 3 mps 767 mmHg 26%
    20:00 -1°C° 0 mm 3 mps 767 mmHg 26%
    21:00 -2°C° 0 mm 4 mps 766 mmHg 26%
    22:00 -2°C° 0 mm 4 mps 765 mmHg 26%
    23:00 -2°C° 0 mm 4 mps 765 mmHg 26%

    Day after tomorrow, 18 November, Sunday

    Time Temperature Precipitation Wind Pressure Humidity
    00:00 -2°C° 0 mm 4 mps 764 mmHg 27%
    01:00 -2°C° 0 mm 4 mps 764 mmHg 27%
    02:00 -3°C° 0 mm 4 mps 764 mmHg 27%
    03:00 -3°C° 0 mm 4 mps 763 mmHg 28%
    04:00 -3°C° 0 mm 4 mps 763 mmHg 28%
    05:00 -3°C° 0 mm 4 mps 762 mmHg 28%
    06:00 -3°C° 0 mm 4 mps 762 mmHg 28%
    07:00 -3°C° 0 mm 4 mps 762 mmHg 27%
    08:00 -2°C° 0 mm 4 mps 762 mmHg 27%
    09:00 -2°C° 0 mm 4 mps 762 mmHg 26%
    10:00 -1°C° 0 mm 4 mps 761 mmHg 26%
    11:00 -1°C° 0 mm 4 mps 761 mmHg 25%
    12:00 0°C° 0 mm 4 mps 761 mmHg 25%
    13:00 0°C° 0 mm 4 mps 761 mmHg 27%
    14:00 -1°C° 0 mm 4 mps 761 mmHg 29%
    15:00 0°C° 0 mm 3 mps 761 mmHg 30%
    16:00 -1°C° 0 mm 3 mps 762 mmHg 32%
    17:00 -2°C° 0 mm 3 mps 762 mmHg 34%
    18:00 -4°C° 0 mm 3 mps 762 mmHg 35%
    19:00 -4°C° 0 mm 3 mps 762 mmHg 35%
    20:00 -3°C° 0 mm 2 mps 762 mmHg 35%
    21:00 -3°C° 0 mm 2 mps 762 mmHg 35%
    22:00 -3°C° 0 mm 2 mps 763 mmHg 35%
    23:00 -3°C° 0 mm 2 mps 763 mmHg 36%

    19 November, Monday

    Time Temperature Precipitation Wind Pressure Humidity
    00:00 -3°C° 0 mm 2 mps 763 mmHg 36%
    01:00 -1°C° 0 mm 1 mps 764 mmHg 37%
    02:00 -2°C° 0 mm 1 mps 764 mmHg 38%
    03:00 -2°C° 0 mm 1 mps 764 mmHg 39%
    04:00 -2°C° 0 mm 1 mps 765 mmHg 39%
    05:00 -2°C° 0 mm 1 mps 765 mmHg 40%
    06:00 -2°C° 0 mm 1 mps 765 mmHg 41%
    07:00 -2°C° 0 mm 1 mps 766 mmHg 40%
    08:00 -1°C° 0 mm 1 mps 766 mmHg 40%
    09:00 -2°C° 0 mm 0 mps 766 mmHg 39%
    10:00 -1°C° 0 mm 0 mps 767 mmHg 37%
    11:00 0°C° 0 mm 0 mps 767 mmHg 35%
    12:00 +1°C° 0 mm 0 mps 767 mmHg 34%
    13:00 +1°C° 0 mm 0 mps 768 mmHg 35%
    14:00 0°C° 0 mm 0 mps 768 mmHg 37%
    15:00 0°C° 0 mm 0 mps 768 mmHg 39%
    16:00 -1°C° 0 mm 0 mps 769 mmHg 40%
    17:00 0°C° 0 mm 1 mps 769 mmHg 41%
    18:00 0°C° 0 mm 1 mps 769 mmHg 42%
    19:00 -1°C° 0 mm 1 mps 769 mmHg 42%
    20:00 -1°C° 0 mm 1 mps 769 mmHg 42%
    21:00 -1°C° 0 mm 1 mps 770 mmHg 42%
    22:00 -1°C° 0 mm 1 mps 770 mmHg 42%
    23:00 -1°C° 0 mm 1 mps 770 mmHg 42%

    20 November, Tuesday

    Time Temperature Precipitation Wind Pressure Humidity
    00:00 -1°C° 0 mm 1 mps 770 mmHg 41%
    01:00 -2°C° 0 mm 1 mps 770 mmHg 41%
    02:00 -2°C° 0 mm 1 mps 771 mmHg 41%
    03:00 -2°C° 0 mm 1 mps 771 mmHg 41%
    04:00 -2°C° 0 mm 1 mps 771 mmHg 40%
    05:00 -2°C° 0 mm 1 mps 771 mmHg 40%
    06:00 -2°C° 0 mm 1 mps 771 mmHg 40%
    07:00 -2°C° 0 mm 1 mps 771 mmHg 39%
    08:00 -2°C° 0 mm 1 mps 771 mmHg 38%
    09:00 -1°C° 0 mm 1 mps 771 mmHg 37%
    10:00 -1°C° 0 mm 1 mps 771 mmHg 35%
    11:00 -1°C° 0 mm 0 mps 770 mmHg 33%
    12:00 0°C° 0 mm 0 mps 770 mmHg 31%
    13:00 0°C° 0 mm 0 mps 770 mmHg 32%
    14:00 -1°C° 0 mm 0 mps 770 mmHg 33%
    15:00 -1°C° 0 mm 0 mps 769 mmHg 34%
    16:00 -1°C° 0 mm 0 mps 769 mmHg 35%
    17:00 0°C° 0 mm 1 mps 769 mmHg 35%
    18:00 -1°C° 0 mm 1 mps 769 mmHg 35%
    19:00 -1°C° 0 mm 1 mps 769 mmHg 35%
    20:00 -1°C° 0 mm 1 mps 769 mmHg 35%
    21:00 0°C° 0 mm 1 mps 768 mmHg 35%
    22:00 -1°C° 0 mm 1 mps 768 mmHg 35%
    23:00 -1°C° 0 mm 1 mps 768 mmHg 35%

    21 November, Wednesday

    Time Temperature Precipitation Wind Pressure Humidity
    00:00 -1°C° 0 mm 1 mps 768 mmHg 35%
    01:00 -1°C° 0 mm 1 mps 767 mmHg 35%
    02:00 -1°C° 0 mm 1 mps 767 mmHg 35%
    03:00 0°C° 0 mm 1 mps 767 mmHg 36%
    04:00 -1°C° 0 mm 1 mps 767 mmHg 39%
    05:00 -1°C° 0 mm 1 mps 766 mmHg 42%
    06:00 -1°C° 0 mm 1 mps 766 mmHg 46%
    07:00 -1°C° 0 mm 1 mps 766 mmHg 48%
    08:00 0°C° 0 mm 1 mps 766 mmHg 51%
    09:00 0°C° 0 mm 1 mps 765 mmHg 54%
    10:00 0°C° 0 mm 1 mps 765 mmHg 52%
    11:00 -1°C° 0 mm 2 mps 765 mmHg 50%
    12:00 -1°C° 0 mm 2 mps 765 mmHg 48%
    13:00 +1°C° 0 mm 1 mps 764 mmHg 49%
    14:00 +1°C° 0 mm 1 mps 764 mmHg 49%
    15:00 0°C° 0 mm 1 mps 763 mmHg 50%
    16:00 0°C° 0 mm 1 mps 763 mmHg 52%
    17:00 0°C° 0 mm 1 mps 763 mmHg 54%
    18:00 0°C° 0 mm 1 mps 763 mmHg 57%
    19:00 0°C° 0 mm 1 mps 763 mmHg 58%
    20:00 -1°C° 0 mm 1 mps 763 mmHg 60%
    21:00 -1°C° 0 mm 1 mps 762 mmHg 61%
    22:00 -1°C° 0 mm 1 mps 762 mmHg 63%
    23:00 -1°C° 0 mm 1 mps 762 mmHg 64%
    Show more